Regional Weather Roundup
Issued by NWS Spokane, WA

Home | Current Version | Previous Version | Text Only | Print | Product List | Glossary On
Versions: 1 2 3 4 5 6 7 8 9 10 11 12 13 14 15 16 17 18 19 20 21 22 23 24 25 26 27 28 29 30 31 32 33 34 35 36 37 38 39 40 41 42 43 44 45 46 47 48 49 50
000
NZUS01 KOTX 280700
RWROTX

Eastern Washington/Northern Idaho Roundup
National Weather Service, Spokane WA
1200 AM PDT SUN AUG 28 2016

Note: "fair" indicated few or no clouds below 12,000 feet with no
significant weather and/or obstructions to visibility.

...Northeast Washington and Northern Idaho Panhandle...

CITY           SKY/WX    TMP DP  RH WIND       PRES   REMARKS
Spokane Intl   PTCLDY    63  42  46 S15       29.84R
Spokane Downto CLEAR     67  42  40 VRB6      29.84R
Coeur d Alene  CLEAR     64  37  36 NE8       29.82R
Deer Park      PTCLDY    61  41  47 SE9       29.81R
Sandpoint      PTCLDY    55  46  71 CALM      29.79R

...Southeast Washington and southern Idaho Panhandle...

CITY           SKY/WX    TMP DP  RH WIND       PRES   REMARKS
Walla Walla    PTCLDY    71  49  45 SW12      29.91R
Pullman/Moscow PTCLDY    67  48  50 W12       29.92R
Lowell           N/A     66  52  60 CALM      29.86R

...Columbia Basin...

CITY           SKY/WX    TMP DP  RH WIND       PRES   REMARKS
Ephrata        CLOUDY    70  42  36 SE8       29.82R
Moses Lake     MOCLDY    69  42  37 W10       29.85R
Pasco          MOCLDY    68  46  45 S5        29.88R
Hermiston      CLOUDY    73  52  47 W9        29.88R
Pendleton      MOCLDY    71  50  47 SW15      29.92R

...East Slopes Cascades...

CITY           SKY/WX    TMP DP  RH WIND       PRES   REMARKS
The Dalles     CLOUDY    72  53  51 NW12      29.92R
Yakima         PTCLDY    65  45  48 NW6       29.91R
Ellensburg     MOCLDY    62  47  57 NW21      29.93R
Wenatchee      CLOUDY    68  45  43 W21G29    29.85S
Omak           MOCLDY    65  37  35 NW7       29.80R
Sunnyside        N/A     60  49  67 SW5       29.88R

...Southern British Columbia...

CITY           SKY/WX    TMP DP  RH WIND       PRES   REMARKS

...Western Montana...

CITY           SKY/WX    TMP DP  RH WIND       PRES   REMARKS
Kalispell      MOSUNNY   68  42  38 VRB7      29.81R
Missoula       MOCLDY    72  40  31 SW5       29.89R

...Neighboring Cities...

CITY           SKY/WX    TMP DP  RH WIND       PRES   REMARKS
Seattle        MOCLDY    58  52  80 S6        30.02R
Portland       MOCLDY    62  53  72 NW6       30.02R
Boise          CLEAR     72  31  22 SE9       29.88S
Great Falls    PTCLDY    67  38  34 S10       29.82R



USA.gov is the U.S. government's official web portal to all federal, state and local government web resources and services.